Погода в Верхнем Сеймчане

Россия / Магаданская область     62°43′24″N   152°28′10″E
темп.,
°C
ветер,
м/с
пор.,
м/с
влажн.,
%
обл.,
%
осадки,
мм/ч
давл.,
гПа
погр.,
м
19 мая, ср
ср1923:00+5вюв357278 0.0 100098
02:00+3вюв347576 0.0 100075
05:00+3вюв347696 0.0 1000149
08:00+4вюв4467100 0.0 1001431
11:00+6юв3362100 0.0 1000990
14:00+7ююв3469100 0.1 1000974
17:00+8юв345698 0.3 10001172
20:00+7юв4561100 0.0 10001000
20 мая, чт
чт2023:00+5в5771100 0.0 1001223
02:00+4в3376100 0.0 1001102
05:00+3юв3488100 0.2 1001405
08:00+2вюв2490100 0.6 1002390
11:00+3вюв1290100 1.3 1002400
14:00+3ссз2195100 0.4 1002384
17:00+4зсз3384100 0.6 1004498
20:00+5з558386 0.1 1005544
21 мая, пт
пт2123:00+3з349187 0.1 1007178
02:00+3сз2385100 0.0 100883
05:00+3зсз237587 0.0 100878
08:00+5с346990 0.0 1009743
11:00+6с446397 0.0 10081083
14:00+6с656384 0.0 1008970
17:00+6с766282 0.1 10081078
20:00+4с777374 0.0 1008595
22 мая, сб
сб2223:00+3с597856 0.0 1009442
02:00+2сз3580100 0.0 1010126
05:00+2сз3581100 0.0 1011291
08:00+4с456783 0.0 1012699
11:00+6с555698 0.1 10121390
14:00+6с555090 0.1 10121389
17:00+8с544468 0.1 10121537
20:00+7с544714 0.0 10131167
23 мая, вс
вс2323:00+4с34645 0.0 101455
02:00+2с22705 0.0 101515
05:00+2с11715 0.0 101610
08:00+5юв01575 0.0 1016501
11:00+8ююв22465 0.0 10151381
14:00+11юв233672 0.0 10142003
17:00+12юв2331100 0.0 10132132
20:00+12вюв343464 0.0 10121872